[[{"header":{"parameterUnit":"m.s-1","parameterCategory":1,"la1":30.2991,"la2":30.254,"lo1":-89.0895,"lo2":-89.0444,"dy":0.0017,"dx":0.0017,"nx":28,"ny":28,"refTime":"2024-08-29T21:00:00:Z","depth":0,"parameterNumber":2,"parameterNumberName":"U-component_of_WINDS"},"data":[0,0,0,0,0,0,0,0,0,0,0,0,0,0,0,0,0,0,0,0,0,0,0,0,0,0,0,0,0,0,0,0,0,0,0,0,0,0,0,0,0,0,0,0,0,0,0,0,0,0,0,0,0,0,0,0,0,0,-2.614,-2.6141,0,-2.6215,-2.6215,-2.6216,-2.622,-2.6219,-2.6218,-2.6217,-2.6292,-2.6295,-2.6298,0,0,0,0,0,0,0,0,0,0,0,0,0,-2.5999,-2.6002,-2.614,-2.6141,-2.6142,-2.6214,-2.6215,-2.6216,-2.622,-2.6219,-2.6218,-2.6217,-2.6291,-2.6295,-2.6298,0,0,0,0,0,0,0,0,0,0,0,0,0,-2.6066,-2.6003,-2.614,-2.6152,-2.6154,-2.6214,-2.6215,-2.6217,-2.622,-2.6219,-2.6218,-2.6216,-2.629,-2.6294,-2.6298,-2.635,0,0,-2.6311,-2.6313,0,0,0,0,0,0,0,0,-2.6062,-2.6071,-2.615,-2.6152,-2.6154,-2.6207,-2.6193,-2.6261,-2.6221,-2.6195,-2.6217,-2.6216,-2.6265,-2.6271,-2.6288,-2.6354,-2.6357,-2.6312,-2.6314,-2.6316,-2.6317,0,0,0,0,0,0,0,-2.6057,-2.6068,-2.6169,-2.6151,-2.6153,-2.6154,-2.6162,-2.6206,-2.6236,-2.6197,-2.6198,-2.6207,-2.6266,-2.6284,-2.629,-2.6358,-2.6312,-2.6315,-2.6318,-2.632,-2.647,-2.6472,0,0,0,0,0,0,-2.6051,-2.6064,-2.6167,-2.6172,-2.6104,-2.6157,-2.6166,-2.6191,-2.6236,-2.6241,-2.6208,-2.6206,-2.6277,-2.6285,-2.6292,-2.6355,-2.6316,-2.632,-2.6322,-2.6469,-2.6471,-2.6472,0,0,0,0,0,0,-2.6048,-2.606,-2.6164,-2.6118,-2.6131,-2.6161,-2.6189,-2.6193,-2.6211,-2.6244,-2.6249,-2.6221,-2.6276,-2.6286,-2.6336,-2.6358,-2.6322,-2.6326,-2.6467,-2.6469,-2.6472,-2.6482,0,0,0,0,0,0,-2.6044,-2.6059,-2.6079,-2.6118,-2.6134,-2.6207,-2.619,-2.6195,-2.6219,-2.6218,-2.6257,-2.6262,-2.6276,-2.633,-2.634,-2.6363,-2.6329,-2.6465,-2.6468,-2.6471,-2.6479,-2.6484,-2.6488,0,0,0,0,0,-2.6038,-2.6079,-2.608,-2.6092,-2.616,-2.6208,-2.6217,-2.6232,-2.622,-2.6241,-2.6262,-2.6261,-2.6354,-2.6335,-2.6347,-2.6371,-2.6464,-2.6467,-2.6471,-2.6478,-2.6483,-2.6488,0,0,0,0,0,0,-2.604,-2.6084,-2.6086,-2.614,-2.617,-2.6208,-2.6234,-2.6237,-2.6271,-2.6269,-2.6286,-2.6295,-2.6344,-2.6363,-2.634,-2.6423,-2.6408,-2.6414,-2.6409,-2.6414,-2.6418,-2.6412,-2.6332,0,0,0,0,0,-2.6047,-2.6083,-2.6119,-2.6164,-2.6179,-2.6204,-2.6226,-2.6235,-2.6267,-2.628,-2.6304,-2.6335,-2.6371,-2.6394,-2.6429,-2.6483,-2.6491,-2.6506,-2.651,-2.6513,-2.6517,-2.6546,-2.6553,-2.6483,-2.6483,-2.6483,0,0,-2.6061,-2.609,-2.6111,-2.6165,-2.6189,-2.6225,-2.6215,-2.6254,-2.628,-2.6285,-2.6333,-2.6353,-2.6388,-2.644,-2.6464,-2.6457,-2.6539,-2.6517,-2.652,-2.6522,-2.655,-2.6557,-2.6563,-2.6486,-2.6485,-2.6485,0,0,-2.6105,-2.6131,-2.617,-2.6195,-2.6233,-2.6249,-2.6259,-2.6297,-2.631,-2.6359,-2.6363,-2.6395,-2.6457,-2.6482,-2.6503,-2.6557,-2.6557,-2.6568,-2.6589,-2.6617,-2.6622,-2.6627,-2.6645,-2.6651,-2.6572,-2.6572,-2.6573,0,-2.6118,-2.6173,-2.619,-2.6229,-2.6252,-2.6259,-2.6298,-2.6321,-2.6368,-2.6384,-2.6376,-2.6454,-2.6478,-2.6535,-2.6548,-2.6566,-2.6576,-2.6562,-2.662,-2.6625,-2.663,-2.6647,-2.6654,-2.6573,-2.6573,-2.6573,-2.6573,0,-2.6186,-2.6224,-2.6251,-2.6296,-2.6323,-2.6362,-2.6384,-2.6409,-2.6416,-2.6434,-2.6483,-2.6513,-2.6554,-2.6569,-2.6576,-2.6627,-2.6621,-2.6617,-2.6601,-2.6637,-2.6654,-2.6661,-2.6575,-2.6574,-2.6574,-2.6574,0,0,-2.6232,-2.6286,-2.6296,-2.6316,-2.6358,-2.6388,-2.6427,-2.6467,-2.6488,-2.652,-2.6553,-2.6606,-2.6602,-2.6625,-2.6636,-2.6661,-2.67,-2.6653,-2.6654,-2.6659,-2.6757,-2.6758,-2.6766,-2.6702,-2.6703,-2.6704,-2.6753,0,-2.6279,-2.6349,-2.6365,-2.6425,-2.646,-2.6467,-2.6502,-2.6531,-2.6549,-2.6581,-2.66,-2.6637,-2.663,-2.6644,-2.6669,-2.669,-2.672,-2.6687,-2.6731,-2.6732,-2.672,-2.6775,-2.6777,-2.6821,-2.676,-2.6761,-2.6762,0,-2.6343,-2.6377,-2.644,-2.6477,-2.6492,-2.6523,-2.6561,-2.6592,-2.6625,-2.6636,-2.6663,-2.6671,-2.6712,-2.6696,-2.6752,-2.6729,-2.6749,-2.6762,-2.6764,-2.6767,-2.6748,-2.6777,-2.6836,-2.6842,-2.6772,-2.6771,-2.6771,0,-2.6368,-2.643,-2.6475,-2.6493,-2.6538,-2.6558,-2.6578,-2.661,-2.6634,-2.6667,-2.6682,-2.672,-2.674,-2.6769,-2.6787,-2.6774,-2.6842,-2.6827,-2.6851,-2.685,-2.6863,-2.6861,-2.6923,-2.6879,-2.6879,-2.6878,-2.6878,0,-2.6418,-2.6456,-2.6487,-2.6515,-2.6557,-2.6576,-2.6618,-2.6638,-2.6666,-2.6698,-2.6707,-2.6736,-2.676,-2.6792,-2.6807,-2.685,-2.686,-2.6869,-2.6872,-2.6867,-2.6866,-2.6879,-2.6875,-2.688,-2.688,-2.6879,-2.6879,0,-2.6453,-2.6475,-2.6525,-2.6563,-2.6574,-2.6604,-2.6636,-2.6663,-2.6682,-2.6721,-2.6732,-2.676,-2.6799,-2.6821,-2.6869,-2.6879,-2.6927,-2.693,-2.6915,-2.6916,-2.6938,-2.6935,-2.7009,-2.7019,-2.6969,-2.697,-2.697,0,-2.6483,-2.6512,-2.6553,-2.6575,-2.6595,-2.663,-2.6654,-2.6674,-2.6698,-2.6738,-2.676,-2.68,-2.6832,-2.6893,-2.6918,-2.6955,-2.6958,-2.6981,-2.6963,-2.6957,-2.6956,-2.6953,-2.6956,-2.6983,-2.6984,-2.6984,-2.6985,0,-2.6532,-2.6542,-2.6576,-2.6613,-2.6641,-2.6671,-2.6702,-2.6719,-2.6744,-2.6771,-2.681,-2.6835,-2.6885,-2.6924,-2.6963,-2.6983,-2.6988,-2.699,-2.6998,-2.6992,-2.6982,-2.6986,-2.6922,-2.6988,-2.6988,-2.6987,-2.6987,-2.6987,-2.6565,-2.659,-2.6624,-2.6661,-2.6685,-2.6713,-2.674,-2.6762,-2.6796,-2.6837,-2.6848,-2.6889,-2.6922,-2.6975,-2.6996,-2.7029,-2.7024,-2.7035,-2.7037,-2.7039,-2.7039,-2.6978,-2.7036,-2.7036,-2.7036,-2.7036,-2.7036,0,-2.6614,-2.6635,-2.6669,-2.6711,-2.674,-2.6743,-2.6776,-2.68,-2.6837,-2.6867,-2.6898,-2.6944,-2.6981,-2.7009,-2.7048,-2.7068,-2.7071,-2.7077,-2.7075,-2.708,-2.7042,-2.7031,-2.7074,-2.7074,-2.7074,-2.7074,-2.7074,-2.7074,-2.6642,-2.6686,-2.6699,-2.6755,-2.6777,-2.6817,-2.6836,-2.6862,-2.6886,-2.6936,-2.6967,-2.6985,-2.7015,-2.7055,-2.709,-2.7097,-2.711,-2.7115,-2.7123,-2.7087,-2.7082,-2.7078,-2.7068,-2.7119,-2.7119,-2.7158,-2.7158,-2.7158]},{"header":{"parameterUnit":"m.s-1","parameterCategory":1,"la1":30.2991,"la2":30.254,"lo1":-89.0895,"lo2":-89.0444,"dy":0.0017,"dx":0.0017,"nx":28,"ny":28,"refTime":"2024-08-29T21:00:00:Z","depth":0,"parameterNumber":3,"parameterNumberName":"V-component_of_WINDS"},"data":[0,0,0,0,0,0,0,0,0,0,0,0,0,0,0,0,0,0,0,0,0,0,0,0,0,0,0,0,0,0,0,0,0,0,0,0,0,0,0,0,0,0,0,0,0,0,0,0,0,0,0,0,0,0,0,0,0,0,3.4331,3.4333,0,3.445,3.4452,3.4453,3.4444,3.4442,3.444,3.4438,3.4559,3.4563,3.4568,0,0,0,0,0,0,0,0,0,0,0,0,0,3.4094,3.4098,3.4331,3.4333,3.4334,3.445,3.4452,3.4453,3.4444,3.4442,3.444,3.4438,3.4557,3.4563,3.4569,0,0,0,0,0,0,0,0,0,0,0,0,0,3.4203,3.4099,3.4331,3.4344,3.4346,3.445,3.4452,3.4454,3.4444,3.4442,3.4439,3.4437,3.4555,3.4562,3.4569,3.4668,0,0,3.4592,3.4595,0,0,0,0,0,0,0,0,3.4197,3.4212,3.434,3.4343,3.4346,3.4429,3.4412,3.4526,3.4445,3.4407,3.4438,3.4435,3.4518,3.4528,3.4556,3.4674,3.4679,3.4592,3.4597,3.46,3.4602,0,0,0,0,0,0,0,3.4189,3.4207,3.4378,3.4342,3.4345,3.4343,3.4355,3.4433,3.4476,3.441,3.441,3.4424,3.4519,3.4549,3.4559,3.468,3.4592,3.4599,3.4603,3.4606,3.4885,3.4888,0,0,0,0,0,0,3.4179,3.42,3.4374,3.4382,3.4263,3.4349,3.4363,3.4405,3.4475,3.4483,3.4426,3.4423,3.4538,3.455,3.4563,3.4683,3.46,3.4607,3.4611,3.4882,3.4885,3.4889,0,0,0,0,0,0,3.4174,3.4195,3.437,3.4291,3.4313,3.4356,3.4403,3.4409,3.4439,3.4487,3.4494,3.445,3.4536,3.4553,3.4642,3.4687,3.461,3.4617,3.4878,3.4883,3.4887,3.4924,0,0,0,0,0,0,3.4167,3.4193,3.4231,3.4292,3.4317,3.4447,3.4406,3.4413,3.4452,3.4449,3.4511,3.4519,3.4535,3.4631,3.4649,3.4696,3.4622,3.4874,3.488,3.4886,3.4919,3.4929,3.4938,0,0,0,0,0,3.4159,3.4237,3.4233,3.4254,3.4366,3.445,3.4464,3.4483,3.4456,3.4495,3.4525,3.4517,3.4679,3.464,3.4661,3.471,3.4872,3.4879,3.4885,3.4915,3.4927,3.4938,0,0,0,0,0,0,3.4179,3.4245,3.4242,3.4342,3.4391,3.4448,3.4498,3.4495,3.4552,3.4547,3.4567,3.4581,3.4671,3.4699,3.4655,3.4809,3.4772,3.4783,3.4787,3.48,3.4809,3.48,3.4628,0,0,0,0,0,3.4196,3.4259,3.4312,3.4395,3.442,3.4455,3.4492,3.4502,3.4553,3.4573,3.461,3.4659,3.4722,3.4762,3.4822,3.4923,3.4936,3.4967,3.4976,3.4984,3.4994,3.5049,3.5063,3.4911,3.4911,3.4911,0,0,3.423,3.4273,3.4312,3.44,3.4439,3.4504,3.4472,3.4541,3.4589,3.4583,3.467,3.4699,3.4755,3.4851,3.4895,3.4878,3.5038,3.4993,3.4998,3.5004,3.5058,3.5072,3.5085,3.4916,3.4915,3.4914,0,0,3.4325,3.4364,3.4438,3.4478,3.4537,3.456,3.4577,3.4636,3.4655,3.4743,3.4739,3.4796,3.4903,3.4943,3.4978,3.5088,3.5082,3.5107,3.5157,3.5211,3.5223,3.5234,3.5273,3.5287,3.5116,3.5116,3.5116,0,3.4359,3.4457,3.4476,3.4546,3.4585,3.4583,3.4657,3.4695,3.477,3.4797,3.4777,3.4911,3.4948,3.5054,3.508,3.5108,3.5129,3.51,3.522,3.5231,3.5241,3.5279,3.5294,3.5119,3.5118,3.5118,3.5118,0,3.4497,3.4565,3.4617,3.4691,3.4735,3.4807,3.4836,3.4879,3.4885,3.4909,3.4998,3.5044,3.5113,3.5138,3.5144,3.5245,3.5232,3.5215,3.5178,3.5258,3.5294,3.5308,3.5123,3.5122,3.5121,3.512,0,0,3.4609,3.4692,3.4711,3.4745,3.481,3.4862,3.4934,3.5002,3.5039,3.5091,3.5151,3.5241,3.5227,3.5266,3.5276,3.5324,3.5408,3.5302,3.5303,3.532,3.5522,3.5534,3.555,3.5405,3.5408,3.541,3.5517,0,3.4711,3.4838,3.4857,3.4969,3.5032,3.5031,3.5093,3.514,3.5165,3.5221,3.5248,3.5312,3.5287,3.5311,3.5358,3.5388,3.5449,3.5381,3.5461,3.5464,3.5448,3.5569,3.5582,3.5681,3.5531,3.5534,3.5535,0,3.4847,3.4904,3.5022,3.508,3.5106,3.5162,3.5226,3.528,3.5333,3.5347,3.5391,3.5396,3.547,3.5429,3.5531,3.5484,3.5518,3.5538,3.5542,3.555,3.5505,3.5581,3.5713,3.5728,3.5558,3.5556,3.5554,0,3.4917,3.5023,3.5108,3.5136,3.5205,3.5244,3.5274,3.5324,3.5364,3.542,3.5446,3.5509,3.5543,3.5592,3.5614,3.5582,3.5714,3.5675,3.5728,3.5728,3.5756,3.5754,3.5896,3.5778,3.5777,3.5777,3.5777,0,3.5029,3.5102,3.514,3.5192,3.5274,3.5294,3.5374,3.5402,3.5447,3.5504,3.5507,3.5561,3.5586,3.5643,3.566,3.5742,3.5758,3.5771,3.5775,3.5771,3.577,3.5794,3.5788,3.5781,3.578,3.5779,3.5779,0,3.5121,3.515,3.5242,3.53,3.5316,3.5373,3.5422,3.5472,3.5497,3.5569,3.5587,3.5625,3.5693,3.5719,3.5802,3.5814,3.5908,3.5906,3.589,3.5892,3.5943,3.5938,3.6106,3.6129,3.5995,3.5996,3.5997,0,3.5191,3.5247,3.5311,3.535,3.5382,3.5444,3.5485,3.5507,3.5549,3.5613,3.5656,3.5723,3.5779,3.5887,3.5922,3.5985,3.5985,3.6039,3.5994,3.5989,3.5986,3.5983,3.5988,3.6047,3.6049,3.605,3.6051,0,3.5313,3.5324,3.5383,3.5447,3.5496,3.5547,3.5597,3.5628,3.5657,3.5705,3.5774,3.5817,3.5902,3.5969,3.6034,3.6065,3.6063,3.6065,3.608,3.6077,3.6066,3.6073,3.5914,3.6061,3.606,3.6059,3.6058,3.6058,3.5396,3.5446,3.5499,3.5564,3.5604,3.5651,3.5701,3.5732,3.579,3.5861,3.587,3.5945,3.5996,3.6083,3.6116,3.6175,3.616,3.6183,3.6189,3.6194,3.6198,3.6056,3.6186,3.6186,3.6186,3.6186,3.6186,0,3.5518,3.5552,3.5612,3.5682,3.5733,3.5727,3.5782,3.5825,3.5891,3.5939,3.5994,3.6074,3.6139,3.6179,3.6244,3.6283,3.6284,3.63,3.6297,3.6304,3.6207,3.6187,3.6298,3.6298,3.6298,3.6298,3.6298,3.6298,3.5587,3.5672,3.5689,3.5793,3.5826,3.59,3.5931,3.5974,3.6013,3.6102,3.6156,3.6182,3.6226,3.6295,3.6354,3.6364,3.6389,3.6406,3.6414,3.6323,3.6311,3.63,3.6281,3.6411,3.6411,3.6507,3.6508,3.6509]}]]